sat.trackr.live / text

‹ back to catalog

STARLINK-35607

NORAD 66163 · 2025-240T

PAYLOAD ACTIVE UNKNOWN

§ Identity

Operator
Country
US
Launch date
2025-10-25
Launch site
AFWTR
Launch vehicle
Mass (kg)
RCS (m²)

Purposes: comms

External: N2YO · Heavens-Above · Gunter

§ Orbital elements

Epoch: 2026-05-25T01:39:20.888064Z

Period
93.85 min
Inclination
53.1589°
Eccentricity
0.0001027
Mean motion
15.34443356 rev/d
Perigee alt
461.9 km
Apogee alt
463.3 km
Semi-major
6,840.7 km
B*
1.2867e-3
RAAN
67.2332°
Arg perigee
77.8049°
Mean anomaly
282.3068°
Rev number
3,369

§ Raw data

STARLINK-356071 66163U 25240T   26145.06899176  .00043409  00000+0  12867-2 0  99942 66163  53.1589  67.2332 0001027  77.8049 282.3068 15.34443356 33691

JSON: /api/v1/satellites/66163 · /tle

For live sub-satellite position, see the globe view (requires WebGL).

§ Visibility from observer

Set your observer location to see the next 7 days of passes ≥ 10°. The values pass through the URL so the page stays shareable.

No JS? Fill the form by hand. The geolocation button needs JavaScript.